Starlink 30443

operational
NORAD ID: 57894 Int'l Des: 2023-146 Owner: SPXS Country: US Constellation: starlink
LEOCIRCULAR

Über Starlink 30443

Beschreibung wird geladen...

Live-Position

3D-Globus wird geladen...

Nächste Überflüge

Höhenverlauf

Altitude vs Time

uPlot chart will show altitude changes over time

Zweizeiliger Elementsatz

1 57894U 23146D 25304.25005226 -.00000373 00000-0 -12519-4 0 9992
2 57894 43.0043 296.8180 0001003 270.6951 89.3777 15.02535292117595
Epoch: 31. Okt. 2025 • Age: 15 hours

Aktueller Status

Höhe 562.9 km
Geschwindigkeit 7.59 km/s
Subsatellitenpunkt 43.01°N, 26.13°E
Startdatum 20. Sept. 2023
Alter 2.1 years
Typ internet

Technische Details

Klassifizierung Payload
Masse 730.00 kg
Trockenmasse 700.00 kg
Gesamtmasse 730.00 kg
Länge 0.30 m
Durchmesser 4.10 m
Spannweite 29.00 m
Form Box + pan
Hersteller SPXS
Bus-Typ Starlink V2M
Phasenstatus In Orbit
Besitzer/Staat SPXS/US

Große Konstellationen

Loading constellations...